KD8OZS Weather Reports


Display with metric or nautical units.
time (UTC)temp
F
wind
direction
speed
MPH
gust
MPH
rain 1hr
in
rain 24hr
in
rain mn
in
humidity
%
barometer
mb
20260504045641 50 252 1.0 1.0 0.00 0.00 0.00 68 1004.6
20260504045140 50 235 0.0 1.0 0.00 0.00 0.00 67 1004.5
20260504044638 50 245 1.0 1.0 0.00 0.00 0.00 68 1004.8
20260504044135 50 236 0.0 1.0 0.00 0.00 0.00 68 1004.6
20260504043632 50 250 1.0 1.0 0.00 0.00 0.00 67 1004.7
20260504043129 50 239 0.0 0.0 0.00 0.00 0.00 68 1004.9
20260504042626 49 237 0.0 0.0 0.00 0.00 0.00 69 1004.8
20260504042123 49 241 0.0 1.0 0.00 0.00 0.00 69 1004.8
20260504041619 49 254 1.0 1.0 0.00 0.00 0.00 69 1004.6
20260504041115 48 273 0.0 1.0 0.00 0.00 0.00 70 1004.9
20260504040613 48 234 1.0 1.0 0.00 0.00 0.00 70 1005.0
20260504040109 49 268 2.0 2.0 0.00 0.00 0.00 69 1004.9
20260504035606 49 246 0.0 1.0 0.00 0.00 0.00 69 1005.0
20260504035103 49 239 0.0 1.0 0.00 0.00 0.00 69 1005.0
20260504034600 48 237 0.0 0.0 0.00 0.00 0.00 70 1005.0
20260504034057 48 253 1.0 1.0 0.00 0.00 0.00 71 1005.1
20260504033555 48 247 0.0 0.0 0.00 0.00 0.00 70 1005.0
20260504033052 48 246 0.0 1.0 0.00 0.00 0.00 70 1005.0
20260504032549 49 246 0.0 0.0 0.00 0.00 0.00 69 1005.1
20260504032046 49 243 0.0 0.0 0.00 0.00 0.00 69 1005.4
20260504031543 50 239 0.0 0.0 0.00 0.00 0.00 68 1005.4
20260504031039 50 235 0.0 0.0 0.00 0.00 0.00 68 1005.3
20260504030537 50 230 0.0 1.0 0.00 0.00 0.00 67 1005.6
20260504030032 50 259 1.0 1.0 0.00 0.00 0.00 67 1005.2
20260504025530 51 246 0.0 0.0 0.00 0.00 0.00 66 1005.6
20260504025026 51 240 1.0 1.0 0.00 0.00 0.00 66 1005.5
20260504024523 51 248 3.0 3.0 0.00 0.00 0.00 66 1005.5
20260504024020 51 238 0.0 0.0 0.00 0.00 0.00 67 1005.4
20260504023517 51 242 0.0 1.0 0.00 0.00 0.00 66 1005.4
20260504023013 51 243 1.0 1.0 0.00 0.00 0.00 66 1005.8
20260504022509 51 231 2.0 2.0 0.00 0.00 0.00 66 1005.4
20260504022006 51 246 0.0 0.0 0.00 0.00 0.00 66 1005.4
20260504021503 51 235 0.0 0.0 0.00 0.00 0.00 67 1005.6
20260504021000 51 247 0.0 0.0 0.00 0.00 0.00 67 1005.5
20260504020456 51 247 0.0 0.0 0.00 0.00 0.00 66 1005.5
20260504015953 51 234 0.0 1.0 0.00 0.00 0.00 68 1005.4
20260504015449 51 237 0.0 0.0 0.00 0.00 0.00 67 1005.5
20260504014945 51 239 0.0 0.0 0.00 0.00 0.00 67 1005.8
20260504014442 51 236 0.0 0.0 0.00 0.00 0.00 67 1005.4
20260504013938 51 234 1.0 1.0 0.00 0.00 0.00 66 1005.5
20260504013437 51 238 1.0 1.0 0.00 0.00 0.00 66 1005.6
20260504012933 51 226 1.0 1.0 0.00 0.00 0.00 66 1005.6
20260504012431 51 216 3.0 5.0 0.00 0.00 0.00 66 1005.7
20260504011928 51 244 2.0 2.0 0.00 0.00 0.00 66 1006.0
20260504011425 51 242 0.0 0.0 0.00 0.00 0.00 66 1005.9
20260504010920 51 222 1.0 1.0 0.00 0.00 0.00 66 1005.9
20260504010417 51 226 3.0 3.0 0.00 0.00 0.00 65 1005.7
20260504005913 51 225 2.0 2.0 0.00 0.00 0.00 65 1005.8
20260504005410 52 217 3.0 3.0 0.00 0.00 0.00 64 1006.0
20260504004908 52 228 1.0 2.0 0.00 0.00 0.00 64 1005.6
20260504004405 52 200 5.0 5.0 0.00 0.00 0.00 63 1005.8
20260504003902 53 229 5.0 7.0 0.00 0.00 0.00 61 1005.7
20260504003358 53 227 6.0 6.0 0.00 0.00 0.00 59 1005.6
20260504002855 54 227 4.0 6.0 0.00 0.00 0.00 55 1005.6
20260504002352 55 236 1.0 1.0 0.00 0.00 0.00 49 1005.0
20260504001849 55 221 1.0 1.0 0.00 0.00 0.00 48 1004.9
20260504001347 56 246 1.0 1.0 0.00 0.00 0.00 48 1005.1
20260504000843 56 232 1.0 2.0 0.00 0.00 0.00 48 1005.0
20260504000340 57 236 0.0 1.0 0.00 0.00 0.00 46 1005.2
20260503235838 57 225 3.0 3.0 0.00 0.00 0.00 45 1005.1
20260503235335 57 233 1.0 1.0 0.00 0.00 0.00 45 1005.0
20260503234833 57 237 2.0 2.0 0.00 0.00 0.00 45 1005.1
20260503234330 57 200 3.0 3.0 0.00 0.00 0.00 45 1005.1
20260503233828 57 241 0.0 1.0 0.00 0.00 0.00 46 1005.2
20260503233324 57 239 0.0 0.0 0.00 0.00 0.00 47 1005.0
20260503232820 57 222 2.0 2.0 0.00 0.00 0.00 45 1005.3
20260503232318 57 213 2.0 2.0 0.00 0.00 0.00 45 1005.3
20260503231816 57 244 1.0 1.0 0.00 0.00 0.00 46 1005.2
20260503231312 57 239 1.0 1.0 0.00 0.00 0.00 46 1005.3
20260503230808 57 247 2.0 2.0 0.00 0.00 0.00 45 1005.3
20260503230306 57 247 2.0 2.0 0.00 0.00 0.00 45 1005.5
20260503225803 57 225 2.0 2.0 0.00 0.00 0.00 44 1005.5
20260503225258 58 238 0.0 1.0 0.00 0.00 0.00 44 1005.6
20260503224755 58 227 1.0 1.0 0.00 0.00 0.00 45 1005.5
20260503224253 58 244 2.0 2.0 0.00 0.00 0.00 45 1005.4
20260503223750 58 204 4.0 5.0 0.00 0.00 0.00 43 1005.8
20260503223248 58 209 4.0 5.0 0.00 0.00 0.00 42 1005.6
20260503222744 58 245 1.0 1.0 0.00 0.00 0.00 45 1005.7
20260503222242 59 240 3.0 3.0 0.00 0.00 0.00 44 1005.8
20260503221740 58 229 1.0 1.0 0.00 0.00 0.00 43 1005.9
20260503221237 58 243 2.0 2.0 0.00 0.00 0.00 44 1005.7
20260503220734 59 232 2.0 3.0 0.00 0.00 0.00 44 1005.8
20260503220231 58 241 1.0 1.0 0.00 0.00 0.00 43 1005.9
20260503215727 58 213 3.0 3.0 0.00 0.00 0.00 42 1006.0
20260503215225 58 217 1.0 2.0 0.00 0.00 0.00 43 1005.9
20260503214723 59 224 2.0 2.0 0.00 0.00 0.00 44 1005.7
20260503214219 59 223 2.0 2.0 0.00 0.00 0.00 46 1006.0
20260503213717 59 250 2.0 2.0 0.00 0.00 0.00 42 1006.0
20260503213214 59 219 2.0 2.0 0.00 0.00 0.00 43 1005.7
20260503212711 59 210 5.0 8.0 0.00 0.00 0.00 41 1005.9
20260503212209 59 236 2.0 3.0 0.00 0.00 0.00 43 1005.8
20260503211706 59 214 2.0 2.0 0.00 0.00 0.00 42 1005.8
20260503211202 60 266 1.0 2.0 0.00 0.00 0.00 43 1006.1
20260503210658 59 227 4.0 5.0 0.00 0.00 0.00 42 1006.0
20260503210155 59 247 5.0 6.0 0.00 0.00 0.00 42 1006.0
20260503205650 59 226 3.0 3.0 0.00 0.00 0.00 40 1006.0
20260503205147 58 227 3.0 3.0 0.00 0.00 0.00 42 1006.2
20260503204643 59 244 2.0 2.0 0.00 0.00 0.00 41 1006.0
20260503204141 60 232 6.0 7.0 0.00 0.00 0.00 40 1006.2
20260503203638 60 236 3.0 3.0 0.00 0.00 0.00 40 1006.2
20260503203136 59 226 4.0 6.0 0.00 0.00 0.00 42 1006.0
20260503202633 59 247 0.0 1.0 0.00 0.00 0.00 41 1006.2
20260503202131 60 235 1.0 2.0 0.00 0.00 0.00 41 1006.1
20260503201629 59 226 5.0 6.0 0.00 0.00 0.00 41 1006.3
20260503201126 60 221 2.0 2.0 0.00 0.00 0.00 43 1006.3
20260503200622 61 262 4.0 6.0 0.00 0.00 0.00 40 1006.4
20260503200118 61 246 1.0 1.0 0.00 0.00 0.00 41 1006.5
20260503195615 62 220 5.0 7.0 0.00 0.00 0.00 38 1006.5
20260503195112 61 250 2.0 2.0 0.00 0.00 0.00 41 1006.5
20260503194609 60 252 3.0 6.0 0.00 0.00 0.00 38 1006.5
20260503194104 60 240 2.0 2.0 0.00 0.00 0.00 42 1006.8
20260503193601 60 217 2.0 2.0 0.00 0.00 0.00 43 1006.9
20260503193056 60 221 4.0 6.0 0.00 0.00 0.00 42 1007.0
20260503192553 59 214 4.0 5.0 0.00 0.00 0.00 43 1007.0
20260503192049 60 245 1.0 1.0 0.00 0.00 0.00 44 1007.1
20260503191546 60 245 3.0 5.0 0.00 0.00 0.00 41 1007.2
20260503191043 59 252 3.0 3.0 0.00 0.00 0.00 42 1007.3
20260503190539 60 231 3.0 3.0 0.00 0.00 0.00 41 1007.3
20260503190037 62 211 3.0 5.0 0.00 0.00 0.00 38 1007.3
20260503185533 61 244 3.0 3.0 0.00 0.00 0.00 43 1007.5
20260503185033 61 212 5.0 7.0 0.00 0.00 0.00 41 1007.6
20260503184529 59 230 3.0 3.0 0.00 0.00 0.00 43 1007.7
20260503184026 59 254 2.0 2.0 0.00 0.00 0.00 45 1007.6
20260503183522 61 238 6.0 9.0 0.00 0.00 0.00 42 1007.7
20260503183020 60 239 1.0 2.0 0.00 0.00 0.00 45 1008.0
20260503182518 60 235 3.0 3.0 0.00 0.00 0.00 45 1008.0
20260503182015 59 226 2.0 3.0 0.00 0.00 0.00 42 1008.1
20260503181512 59 221 5.0 6.0 0.00 0.00 0.00 43 1007.7
20260503181008 59 237 3.0 5.0 0.00 0.00 0.00 45 1007.8
20260503180506 59 228 4.0 5.0 0.00 0.00 0.00 43 1007.8
20260503180003 58 218 3.0 5.0 0.00 0.00 0.00 43 1008.2
20260503175501 59 245 3.0 3.0 0.00 0.00 0.00 43 1008.2
20260503174957 60 245 3.0 5.0 0.00 0.00 0.00 46 1008.3
20260503174455 59 228 5.0 6.0 0.00 0.00 0.00 45 1008.2
20260503173950 58 228 3.0 5.0 0.00 0.00 0.00 48 1008.3
20260503173446 58 241 2.0 2.0 0.00 0.00 0.00 45 1008.6
20260503172943 58 242 3.0 3.0 0.00 0.00 0.00 46 1008.4
20260503172440 59 221 4.0 5.0 0.00 0.00 0.00 43 1008.4
20260503171937 60 280 4.0 5.0 0.00 0.00 0.00 45 1008.4
20260503171433 58 216 4.0 5.0 0.00 0.00 0.00 48 1008.6
20260503170931 59 244 1.0 2.0 0.00 0.00 0.00 52 1008.8
20260503170427 60 239 3.0 3.0 0.00 0.00 0.00 46 1008.7
20260503150820 54 259 3.0 3.0 0.00 0.00 0.00 51 1009.8
20260503150315 55 230 3.0 5.0 0.00 0.00 0.00 49 1009.7
20260503140240 50 234 1.0 1.0 0.00 0.00 0.00 59 1009.9
20260503131209 46 239 0.0 0.0 0.00 0.00 0.00 66 1010.3
20260503130707 47 233 1.0 2.0 0.00 0.00 0.00 65 1010.3
20260503130204 47 232 0.0 1.0 0.00 0.00 0.00 66 1010.1
20260503120130 36 236 0.0 0.0 0.00 0.00 0.00 98 1010.1
20260503110557 30 239 0.0 0.0 0.00 0.00 0.00 99 1009.8
20260503090444 31 239 0.0 0.0 0.00 0.00 0.00 98 1009.0
20260503081410 31 239 0.0 0.0 0.00 0.00 0.00 97 1009.3
20260503080908 31 239 0.0 0.0 0.00 0.00 0.00 97 1009.2
20260503080404 31 239 0.0 0.0 0.00 0.00 0.00 97 1009.4
20260503072840 32 239 0.0 0.0 0.00 0.00 0.00 97 1009.1
20260503072338 32 239 0.0 0.0 0.00 0.00 0.00 97 1009.2
20260503071834 32 239 0.0 0.0 0.00 0.00 0.00 96 1009.1
20260503071331 33 239 0.0 0.0 0.00 0.00 0.00 96 1009.0
20260503070827 33 239 0.0 0.0 0.00 0.00 0.00 96 1009.1
20260503070326 33 239 0.0 0.0 0.00 0.00 0.00 96 1009.2
20260503060250 35 239 0.0 0.0 0.00 0.00 0.00 95 1009.3
20260503054738 35 239 0.0 0.0 0.00 0.00 0.00 95 1009.4
20260503054234 35 239 0.0 0.0 0.00 0.00 0.00 95 1009.4
20260503053732 35 239 0.0 0.0 0.00 0.00 0.00 95 1009.6
20260503053231 35 239 0.0 0.0 0.00 0.00 0.00 94 1009.5
20260503052727 36 239 0.0 0.0 0.00 0.00 0.00 94 1009.4
20260503052223 36 241 0.0 0.0 0.00 0.00 0.00 94 1009.3
20260503051718 36 241 0.0 0.0 0.00 0.00 0.00 94 1009.4
20260503051217 36 241 0.0 0.0 0.00 0.00 0.00 93 1009.5
20260503050713 36 241 0.0 0.0 0.00 0.00 0.00 93 1009.5
20260503050209 36 241 0.0 0.0 0.00 0.00 0.00 93 1009.5
20260503045707 36 241 0.0 0.0 0.00 0.00 0.00 93 1009.6